Weather History for Ambler, AK

Change the Weather History Date:

Sunday, November 4, 2012

  Actual Average Record
Temperature  
Mean Temperature 0 °F -  
Max Temperature 10 °F 14 °F 35 °F (2003)
Min Temperature -9 °F 6 °F -18 °F (2005)
Degree Days  
Heating Degree Days 64    
Moisture  
Dew Point -9 °F    
Average Humidity 69    
Maximum Humidity 92    
Minimum Humidity 51    
Precipitation  
Precipitation 0.00 in - - ()
Sea Level Pressure  
Sea Level Pressure 30.01 in    
Wind  
Wind Speed 3 mph (North)    
Max Wind Speed 7 mph    
Max Gust Speed -    
Visibility 10 miles    
Events      
Averages and records for this station are not official NWS values.
T = Trace of Precipitation, MM = Missing Value Source: NWS Daily Summary

Daily Weather History Graph

Daily Weather History Graph

Search for Another Location

Airport:

Trip Planner

Search our weather history database for the weather conditions in past years. The results will help you decide how hot, cold, wet, or windy it might be!

Date:

Astronomy

Nov. 04, 2012 Rise Set
Actual Time 9:49 AM AKST 4:39 PM AKST
Civil Twilight 8:45 AM AKST 5:43 PM AKST
Nautical Twilight 7:39 AM AKST 6:48 PM AKST
Astronomical Twilight 6:37 AM AKST 7:50 PM AKST
Moon 9:02 PM AKST (11/4) 3:12 PM AKST (11/4)
Length of Visible Light 8h 57m
Length of Day
6h 49m
Waning Gibbous, 70% of the Moon is Illuminated
Nov 4
Waning Gibbous
Nov 6
Last Quarter
Nov 13
New
Nov 20
First Quarter
Nov 28
Full

Hourly Weather History & Observations

Time (AKST) Temp. Windchill Dew Point Humidity Pressure Visibility Wind Dir Wind Speed Gust Speed Precip Events Conditions
12:16 AM 1.4 °F -6.2 °F -9.4 °F 61% 30.05 in 10.0 mi NNE 3.5 mph - N/A   Clear
12:36 AM 1.4 °F -8.3 °F -9.4 °F 61% 30.05 in 10.0 mi NNE 4.6 mph - N/A   Clear
12:56 AM 1.4 °F -8.3 °F -11.2 °F 56% 30.05 in 10.0 mi NNE 4.6 mph - N/A   Clear
1:16 AM 1.4 °F -8.3 °F -9.4 °F 61% 30.05 in 10.0 mi NE 4.6 mph - N/A   Clear
1:36 AM 1.4 °F -8.3 °F -9.4 °F 61% 30.04 in 10.0 mi NNE 4.6 mph - N/A   Clear
1:56 AM 1.4 °F -9.9 °F -9.4 °F 61% 30.04 in 10.0 mi NNE 5.8 mph - N/A   Clear
1:16 AM 1.4 °F -11.3 °F -9.4 °F 61% 30.04 in 10.0 mi NE 6.9 mph - N/A   Clear
1:36 AM 1.4 °F -8.3 °F -9.4 °F 61% 30.04 in 10.0 mi NE 4.6 mph - N/A   Clear
1:56 AM 1.4 °F -11.3 °F -9.4 °F 61% 30.04 in 10.0 mi NNE 6.9 mph - N/A   Clear
2:16 AM 1.4 °F -11.3 °F -9.4 °F 61% 30.04 in 10.0 mi NNE 6.9 mph - N/A   Clear
3:36 AM 1.4 °F -8.3 °F -9.4 °F 61% 30.03 in 10.0 mi NNE 4.6 mph - N/A   Clear
3:56 AM -0.4 °F -8.3 °F -11.2 °F 60% 30.03 in 10.0 mi North 3.5 mph - N/A   Clear
4:16 AM -0.4 °F -8.3 °F -14.8 °F 51% 30.03 in 10.0 mi NW 3.5 mph - N/A   Clear
4:36 AM -2.2 °F - - N/A% 30.04 in 10.0 mi Calm Calm - N/A   Clear
4:56 AM -0.4 °F - -9.4 °F 66% 30.03 in 10.0 mi Calm Calm - N/A   Clear
5:16 AM -2.2 °F - -14.8 °F 55% 30.03 in 10.0 mi Calm Calm - N/A   Clear
5:36 AM -2.2 °F -10.4 °F -11.2 °F 66% 30.03 in 10.0 mi WNW 3.5 mph - N/A   Clear
5:56 AM -5.8 °F - -14.8 °F 65% 30.03 in 10.0 mi Calm Calm - N/A   Clear
6:16 AM -2.2 °F -10.4 °F -7.6 °F 78% 30.03 in 10.0 mi NNW 3.5 mph - N/A   Clear
6:36 AM -2.2 °F -14.2 °F -11.2 °F 66% 30.03 in 10.0 mi North 5.8 mph - N/A   Clear
6:56 AM -0.4 °F -12.0 °F -9.4 °F 66% 30.02 in 10.0 mi NNE 5.8 mph - N/A   Clear
7:16 AM -0.4 °F - -13.0 °F 55% 30.02 in 10.0 mi Calm Calm - N/A   Clear
7:36 AM -2.2 °F - -13.0 °F 60% 30.02 in 10.0 mi Calm Calm - N/A   Clear
7:56 AM -2.2 °F - -13.0 °F 60% 30.02 in 10.0 mi Calm Calm - N/A   Clear
8:16 AM -4.0 °F -12.4 °F -13.0 °F 65% 30.02 in 10.0 mi NW 3.5 mph - N/A   Clear
8:36 AM -2.2 °F -12.5 °F -9.4 °F 71% 30.02 in 10.0 mi WNW 4.6 mph - N/A   Clear
8:56 AM -2.2 °F -10.4 °F -11.2 °F 66% 30.02 in 10.0 mi West 3.5 mph - N/A   Clear
9:16 AM -2.2 °F - -11.2 °F 66% 30.02 in 10.0 mi Calm Calm - N/A   Clear
9:36 AM -2.2 °F -12.5 °F -7.6 °F 78% 30.01 in 10.0 mi WNW 4.6 mph - N/A   Clear
9:56 AM -2.2 °F -10.4 °F -9.4 °F 71% 30.01 in 10.0 mi WNW 3.5 mph - N/A   Clear
10:16 AM -0.4 °F - -7.6 °F 72% 30.01 in 10.0 mi Calm Calm - N/A   Clear
10:36 AM -7.6 °F - -20.2 °F 54% 30.01 in 10.0 mi Calm Calm - N/A   Clear
10:56 AM -9.4 °F - -14.8 °F 77% 30.01 in 10.0 mi Calm Calm - N/A   Clear
11:16 AM -9.4 °F - -14.8 °F 77% 30.01 in 10.0 mi Calm Calm - N/A   Clear
11:36 AM -9.4 °F - -13.0 °F 84% 30.02 in 10.0 mi Calm Calm - N/A   Clear
11:56 AM -7.6 °F - -11.2 °F 84% 30.01 in 10.0 mi Calm Calm - N/A   Clear
12:16 PM -5.8 °F - -11.2 °F 77% 30.01 in 10.0 mi Calm Calm - N/A   Clear
12:36 PM -5.8 °F - -11.2 °F 77% 30.01 in 10.0 mi Calm Calm - N/A   Clear
12:56 PM -2.2 °F - -7.6 °F 78% 30.01 in 10.0 mi Calm Calm - N/A   Clear
1:16 PM -2.2 °F - -11.2 °F 66% 30.00 in 10.0 mi Calm Calm - N/A   Clear
1:36 PM -4.0 °F - -11.2 °F 71% 30.00 in 10.0 mi Calm Calm - N/A   Clear
1:56 PM -2.2 °F - -7.6 °F 78% 30.00 in 10.0 mi Calm Calm - N/A   Clear
2:16 PM -2.2 °F - -9.4 °F 71% 29.99 in 10.0 mi Calm Calm - N/A   Clear
2:36 PM -0.4 °F -8.3 °F -7.6 °F 72% 29.99 in 10.0 mi South 3.5 mph - N/A   Clear
2:56 PM -2.2 °F - -9.4 °F 71% 29.99 in 10.0 mi Calm Calm - N/A   Clear
3:16 PM -2.2 °F - -7.6 °F 78% 29.98 in 10.0 mi Calm Calm - N/A   Clear
3:36 PM -2.2 °F - -9.4 °F 71% 29.98 in 10.0 mi Calm Calm - N/A   Clear
3:56 PM -2.2 °F - -7.6 °F 78% 29.98 in 10.0 mi Calm Calm - N/A   Clear
4:16 PM -0.4 °F - -7.6 °F 72% 29.98 in 10.0 mi Calm Calm - N/A   Clear
4:36 PM -0.4 °F - -7.6 °F 72% 29.98 in 10.0 mi Calm Calm - N/A   Clear
4:56 PM -2.2 °F -10.4 °F -9.4 °F 71% 29.98 in 10.0 mi NW 3.5 mph - N/A   Clear
5:16 PM -2.2 °F - -11.2 °F 66% 29.98 in 10.0 mi Calm Calm - N/A   Clear
5:36 PM -2.2 °F - -9.4 °F 71% 29.98 in 10.0 mi Calm Calm - N/A   Clear
5:56 PM -4.0 °F -12.4 °F -9.4 °F 78% 29.98 in 10.0 mi North 3.5 mph - N/A   Partly Cloudy
6:16 PM -4.0 °F -12.4 °F -11.2 °F 71% 29.98 in 10.0 mi North 3.5 mph - N/A   Clear
6:36 PM -2.2 °F - -9.4 °F 71% 29.98 in 10.0 mi Calm Calm - N/A   Clear
6:56 PM -2.2 °F - -7.6 °F 78% 29.98 in 10.0 mi Calm Calm - N/A   Clear
7:16 PM -2.2 °F -10.4 °F -7.6 °F 78% 29.98 in 10.0 mi NNW 3.5 mph - N/A   Clear
7:36 PM -4.0 °F - -11.2 °F 71% 29.99 in 10.0 mi Calm Calm - N/A   Clear
7:56 PM -0.4 °F -8.3 °F -2.2 °F 92% 29.99 in 10.0 mi North 3.5 mph - N/A   Clear
8:16 PM 1.4 °F -8.3 °F -5.8 °F 72% 29.99 in 10.0 mi North 4.6 mph - N/A   Clear
8:36 PM 10.4 °F 0.8 °F 5.0 °F 79% 29.99 in 10.0 mi NNE 5.8 mph - N/A   Clear
8:56 PM 10.4 °F -0.4 °F -2.2 °F 57% 29.99 in 10.0 mi NNW 6.9 mph - N/A   Clear
9:16 PM 10.4 °F 4.0 °F 3.2 °F 73% 30.00 in 10.0 mi NNW 3.5 mph - N/A   Clear
9:36 PM 8.6 °F - -2.2 °F 62% 30.00 in 10.0 mi Calm Calm - N/A   Clear
9:56 PM 8.6 °F - 1.4 °F 73% 30.01 in 10.0 mi Calm Calm - N/A   Clear
10:16 PM 5.0 °F -4.1 °F -4.0 °F 66% 30.01 in 10.0 mi NNW 4.6 mph - N/A   Clear
10:36 PM 3.2 °F - -2.2 °F 78% 30.01 in 10.0 mi Calm Calm - N/A   Clear
10:56 PM 3.2 °F - -2.2 °F 78% 30.01 in 10.0 mi Calm Calm - N/A   Clear